Location: Camaret
(48.2753°N, 4.5961°W)
Time: 04:14:07
(UTC+00:00)

Aureole 3 - Pass Details

Date: 29 October 2020
Orbit: 382 x 1231 km, 82.5° (Epoch: 01 December)

Event Time Altitude Azimuth Distance (km) Brightness Sun altitude
Rises 17:30:10 0° 158° (SSE) 2,351 6.5 -5.0°
Reaches altitude 10° 17:32:32 10° 142° (SE) 1,439 5.2 -5.4°
Maximum altitude 17:34:52 20° 91° (E) 952 4.0 -5.8°
Drops below altitude 10° 17:37:11 10° 40° (NE) 1,418 4.9 -6.2°
Sets 17:39:29 0° 23° (NNE) 2,305 6.1 -6.6°
